GW7011 Weather Reports


time (UTC)temp
F
wind
direction
speed
knots
gust
knots
rain 1hr
in
rain 24hr
in
rain mn
in
humidity
%
barometer
mb
20260504215304 67 240 2.6 6.1 0.00 0.00 0.00 37 1005.1
20260504214759 67 293 2.6 5.2 0.00 0.00 0.00 38 1005.2
20260504214256 67 242 4.3 8.7 0.00 0.00 0.00 37 1005.3
20260504213753 67 232 3.5 5.2 0.00 0.00 0.00 37 1004.9
20260504213249 67 246 2.6 5.2 0.00 0.00 0.00 38 1004.9
20260504212746 68 202 3.5 6.1 0.00 0.00 0.00 38 1005.1
20260504212242 68 278 3.5 7.0 0.00 0.00 0.00 36 1005.0
20260504211740 67 231 4.3 7.0 0.00 0.00 0.00 36 1005.1
20260504211236 67 243 6.1 8.7 0.00 0.00 0.00 36 1005.0
20260504210734 67 180 2.6 6.1 0.00 0.00 0.00 37 1005.1
20260504210231 67 227 7.0 8.7 0.00 0.00 0.00 36 1005.0
20260504205727 67 243 2.6 4.3 0.00 0.00 0.00 37 1004.8
20260504205225 67 220 6.1 7.8 0.00 0.00 0.00 35 1004.9
20260504204723 66 221 2.6 4.3 0.00 0.00 0.00 38 1004.6
20260504204222 67 212 3.5 8.7 0.00 0.00 0.00 38 1005.1
20260504203721 67 242 2.6 6.1 0.00 0.00 0.00 37 1004.9
20260504203218 67 179 2.6 5.2 0.00 0.00 0.00 37 1004.8
20260504202717 66 227 2.6 7.0 0.00 0.00 0.00 38 1004.9
20260504202215 66 224 1.7 4.3 0.00 0.00 0.00 37 1004.8
20260504201712 66 262 1.7 4.3 0.00 0.00 0.00 42 1004.9
20260504201209 66 193 4.3 6.1 0.00 0.00 0.00 41 1005.1
20260504200706 66 223 2.6 5.2 0.00 0.00 0.00 38 1005.0
20260504200202 66 318 1.7 6.1 0.00 0.00 0.00 40 1005.1
20260504195659 66 259 2.6 5.2 0.00 0.00 0.00 39 1004.9
20260504195155 67 234 2.6 5.2 0.00 0.00 0.00 40 1005.3
20260504194652 66 241 4.3 9.6 0.00 0.00 0.00 38 1005.2
20260504194147 66 215 5.2 9.6 0.00 0.00 0.00 39 1005.2
20260504193644 66 236 3.5 9.6 0.00 0.00 0.00 38 1005.2
20260504193142 67 282 4.3 6.1 0.00 0.00 0.00 38 1005.2
20260504192640 67 224 3.5 7.0 0.00 0.00 0.00 39 1005.0
20260504192138 65 302 1.7 5.2 0.00 0.00 0.00 39 1005.3
20260504191636 66 339 6.1 7.0 0.00 0.00 0.00 41 1005.4
20260504191132 65 288 3.5 7.0 0.00 0.00 0.00 41 1005.2
20260504190628 65 272 2.6 7.8 0.00 0.00 0.00 39 1005.2
20260504190125 64 276 0.9 5.2 0.00 0.00 0.00 41 1005.3
20260504185621 64 224 5.2 8.7 0.00 0.00 0.00 43 1005.5
20260504185118 64 74 2.6 4.3 0.00 0.00 0.00 41 1005.2
20260504184614 63 223 2.6 12.2 0.00 0.00 0.00 42 1005.4
20260504184109 63 211 2.6 4.3 0.00 0.00 0.00 43 1005.3
20260504183607 63 237 4.3 5.2 0.00 0.00 0.00 45 1005.4
20260504183104 62 288 1.7 2.6 0.00 0.00 0.00 43 1005.5
20260504182601 62 205 6.1 7.0 0.00 0.00 0.00 44 1005.7
20260504182059 61 281 1.7 4.3 0.00 0.00 0.00 47 1005.7
20260504181555 61 312 0.9 1.7 0.00 0.00 0.00 47 1005.8
20260504181054 61 210 0.9 2.6 0.00 0.00 0.00 47 1005.6
20260504180553 62 296 0.9 0.9 0.00 0.00 0.00 46 1005.6
20260504180051 62 202 1.7 2.6 0.00 0.00 0.00 44 1005.7
20260504175548 62 241 0.0 1.7 0.00 0.00 0.00 43 1005.7
20260504175044 62 251 2.6 6.1 0.00 0.00 0.00 42 1005.7
20260504174543 62 14 1.7 2.6 0.00 0.00 0.00 44 1005.2
20260504174039 62 280 3.5 4.3 0.00 0.00 0.00 42 1005.4
20260504173536 63 281 3.5 8.7 0.00 0.00 0.00 43 1005.8
20260504173033 62 313 3.5 5.2 0.00 0.00 0.00 42 1005.4
20260504172529 62 169 7.8 9.6 0.00 0.00 0.00 42 1005.7
20260504172026 62 257 4.3 7.8 0.00 0.00 0.00 40 1005.6
20260504171523 62 252 0.9 4.3 0.00 0.00 0.00 41 1005.6
20260504171020 62 254 3.5 7.8 0.00 0.00 0.00 41 1005.6
20260504170515 62 223 7.8 12.2 0.00 0.00 0.00 40 1005.5
20260504160436 62 235 7.0 9.6 0.00 0.00 0.00 43 1005.0
20260504150900 59 180 1.7 6.1 0.00 0.00 0.00 48 1005.6
20260504150356 59 208 4.3 11.3 0.00 0.00 0.00 49 1005.8
20260504141326 55 227 5.2 6.1 0.00 0.00 0.00 53 1006.4
20260504140823 55 214 4.3 9.6 0.00 0.00 0.00 56 1006.6
20260504140319 55 187 7.8 11.3 0.00 0.00 0.00 56 1006.4
20260504130747 52 212 5.2 7.0 0.00 0.00 0.00 63 1007.0
20260504130244 51 192 1.7 4.3 0.00 0.00 0.00 66 1007.2
20260504120207 48 227 2.6 4.3 0.00 0.00 0.00 71 1007.8
20260504110635 47 204 0.9 2.6 0.00 0.00 0.00 68 1007.8
20260504110131 46 212 3.5 5.2 0.00 0.00 0.00 68 1007.7
20260504100557 45 279 0.0 4.3 0.00 0.00 0.00 66 1007.9
20260504081950 43 209 0.9 2.6 0.00 0.00 0.00 59 1007.8
20260504081448 42 245 0.0 1.7 0.00 0.00 0.00 59 1007.8
20260504080943 41 253 0.0 0.0 0.00 0.00 0.00 63 1007.8
20260504080440 41 316 0.0 1.7 0.00 0.00 0.00 64 1007.9
20260504070408 36 285 0.0 0.9 0.00 0.00 0.00 90 1007.7
20260504050253 35 265 0.9 0.9 0.00 0.00 0.00 90 1007.6
20260504045751 36 297 0.9 0.9 0.00 0.00 0.00 91 1007.7
20260504045250 36 297 0.0 0.9 0.00 0.00 0.00 91 1007.5
20260504044748 37 279 0.0 0.0 0.00 0.00 0.00 90 1007.6
20260504044246 37 279 0.0 0.0 0.00 0.00 0.00 90 1007.6
20260504043743 37 269 0.0 0.0 0.00 0.00 0.00 90 1007.5
20260504043239 37 270 0.0 0.0 0.00 0.00 0.00 90 1007.4
20260504042737 37 293 0.0 0.0 0.00 0.00 0.00 90 1007.5
20260504042233 37 293 0.0 0.0 0.00 0.00 0.00 90 1007.6
20260504041730 37 263 0.0 0.0 0.00 0.00 0.00 90 1007.5
20260504041226 37 259 1.7 1.7 0.00 0.00 0.00 91 1007.6
20260504040722 37 305 0.0 0.0 0.00 0.00 0.00 90 1007.5
20260504040220 37 305 0.9 0.9 0.00 0.00 0.00 89 1007.3
20260504035716 37 304 0.9 0.9 0.00 0.08 0.08 88 1007.5
20260504035213 37 304 0.9 0.9 0.00 0.08 0.08 88 1007.4
20260504034710 37 304 0.0 0.0 0.00 0.08 0.08 88 1007.5
20260504034207 37 304 0.0 0.0 0.00 0.08 0.08 88 1007.5
20260504033705 37 304 0.0 0.0 0.00 0.08 0.08 88 1007.5
20260504033202 37 304 0.0 0.0 0.00 0.08 0.08 88 1007.2
20260504032659 38 304 0.0 0.0 0.00 0.08 0.08 88 1007.3
20260504032156 38 304 0.0 0.9 0.00 0.08 0.08 87 1007.4
20260504031653 38 304 0.0 0.0 0.00 0.08 0.08 87 1007.3
20260504031149 38 305 0.0 0.0 0.00 0.08 0.08 85 1007.1
20260504030646 38 304 0.0 0.0 0.00 0.08 0.08 85 1007.3
20260504030143 38 304 0.0 0.0 0.00 0.08 0.08 84 1007.4
20260504025640 38 304 0.0 0.0 0.00 0.08 0.08 83 1007.3
20260504025136 38 304 0.0 0.0 0.00 0.08 0.08 83 1007.3
20260504024634 39 304 0.0 0.0 0.00 0.08 0.08 82 1007.3
20260504024130 39 304 0.0 0.0 0.00 0.08 0.08 82 1007.3
20260504023627 39 305 0.0 0.0 0.00 0.08 0.08 80 1007.3
20260504023123 39 305 0.0 0.0 0.00 0.08 0.08 79 1007.4
20260504022619 39 304 0.0 0.0 0.00 0.08 0.08 79 1007.3
20260504022115 40 304 0.0 0.0 0.00 0.08 0.08 78 1007.4
20260504021614 40 305 0.0 0.0 0.00 0.08 0.08 76 1007.2
20260504021110 40 305 0.0 0.0 0.00 0.08 0.08 76 1007.3
20260504020607 41 305 0.0 0.0 0.00 0.08 0.08 75 1007.3
20260504020103 41 305 0.0 0.0 0.00 0.08 0.08 69 1007.3
20260504015600 41 305 0.0 0.0 0.00 0.08 0.08 68 1007.2
20260504015055 41 305 0.0 0.0 0.00 0.08 0.08 74 1007.3
20260504014552 42 284 0.0 0.9 0.00 0.08 0.08 72 1007.4
20260504014049 42 256 0.0 0.0 0.00 0.08 0.08 69 1007.3
20260504013547 43 253 0.9 0.9 0.00 0.08 0.08 68 1007.3
20260504013043 42 325 0.0 0.0 0.00 0.08 0.08 63 1007.3
20260504012541 43 325 0.9 0.9 0.00 0.08 0.08 64 1007.3
20260504012039 43 325 0.9 1.7 0.00 0.08 0.08 60 1007.3
20260504011535 43 326 0.9 0.9 0.00 0.08 0.08 60 1007.3
20260504011031 43 359 0.9 1.7 0.00 0.08 0.08 62 1007.3
20260504010527 42 0 0.9 1.7 0.00 0.08 0.08 62 1007.0
20260504010023 42 332 0.9 0.9 0.00 0.08 0.08 64 1007.2
20260504005520 42 325 0.9 0.9 0.00 0.08 0.08 63 1007.0
20260504005018 42 325 0.9 1.7 0.00 0.08 0.08 62 1007.0
20260504004516 42 333 0.9 1.7 0.00 0.08 0.08 63 1006.8
20260504004012 43 320 0.9 0.9 0.00 0.08 0.08 64 1006.8
20260504003508 43 303 0.9 0.9 0.00 0.08 0.08 63 1006.7
20260504003005 43 302 0.9 0.9 0.00 0.08 0.08 59 1006.7
20260504002502 43 303 0.9 0.9 0.00 0.08 0.08 60 1006.8
20260504001959 43 302 0.0 0.9 0.00 0.08 0.08 62 1006.6
20260504001457 43 302 0.9 0.9 0.00 0.08 0.08 61 1006.7
20260504000953 43 300 0.0 0.9 0.00 0.08 0.08 63 1006.5
20260504000450 43 301 0.9 0.9 0.00 0.08 0.08 61 1006.4
20260503235948 44 300 0.0 0.9 0.00 0.08 0.08 63 1006.4
20260503235445 44 299 0.0 0.9 0.00 0.08 0.08 63 1006.1
20260503234942 44 308 0.9 0.9 0.00 0.08 0.08 61 1006.3
20260503234440 45 318 0.9 1.7 0.00 0.08 0.08 57 1006.5
20260503233938 45 312 0.9 1.7 0.00 0.08 0.08 55 1006.4
20260503233434 45 328 0.9 1.7 0.00 0.08 0.08 56 1006.0
20260503232931 46 318 0.9 2.6 0.00 0.08 0.08 53 1006.0
20260503232428 46 323 0.9 2.6 0.00 0.08 0.08 53 1006.1
20260503231926 46 285 1.7 1.7 0.00 0.08 0.08 51 1006.1
20260503231423 47 332 1.7 2.6 0.00 0.08 0.08 49 1006.0
20260503230919 47 259 0.9 4.3 0.00 0.08 0.08 51 1006.1
20260503230416 48 326 1.7 2.6 0.00 0.08 0.08 50 1006.0
20260503225914 48 351 1.7 2.6 0.00 0.08 0.08 51 1005.9
20260503225409 47 315 0.9 4.3 0.00 0.08 0.08 52 1005.7
20260503224906 47 300 0.0 1.7 0.00 0.08 0.08 50 1005.8
20260503224403 48 253 2.6 4.3 0.00 0.08 0.08 49 1005.7
20260503223900 48 299 1.7 4.3 0.00 0.08 0.08 50 1005.7
20260503223358 49 289 2.6 2.6 0.00 0.08 0.08 49 1005.6
20260503222853 49 261 0.9 4.3 0.00 0.08 0.08 50 1005.6
20260503222352 49 18 3.5 4.3 0.00 0.08 0.08 49 1005.7
20260503221850 49 152 2.6 5.2 0.00 0.08 0.08 51 1005.5
20260503221348 49 295 1.7 4.3 0.00 0.08 0.08 47 1005.5
20260503220844 50 261 2.6 5.2 0.00 0.08 0.08 46 1005.4
20260503220341 50 181 3.5 7.0 0.00 0.08 0.08 48 1005.3
20260503215838 51 334 1.7 1.7 0.00 0.08 0.08 48 1005.3
20260503215335 50 308 1.7 2.6 0.00 0.08 0.08 50 1004.9